[[{"header":{"parameterUnit":"m.s-1","parameterCategory":1,"la1":30.2991,"la2":30.254,"lo1":-89.0895,"lo2":-89.0444,"dy":0.0017,"dx":0.0017,"nx":28,"ny":28,"refTime":"2025-01-08T09:00:00:Z","depth":0,"parameterNumber":2,"parameterNumberName":"U-component_of_WINDS"},"data":[0,0,0,0,0,0,0,0,0,0,0,0,0,0,0,0,0,0,0,0,0,0,0,0,0,0,0,0,0,0,0,0,0,0,0,0,0,0,0,0,0,0,0,0,0,0,0,0,0,0,0,0,0,0,0,0,0,0,-1.1174,-1.1175,0,-1.1244,-1.1245,-1.1246,-1.1187,-1.1184,-1.1182,-1.1179,-1.1255,-1.1259,-1.1263,0,0,0,0,0,0,0,0,0,0,0,0,0,-1.0989,-1.0993,-1.1174,-1.1175,-1.1175,-1.1244,-1.1245,-1.1246,-1.1187,-1.1184,-1.1181,-1.1178,-1.1253,-1.1258,-1.1263,0,0,0,0,0,0,0,0,0,0,0,0,0,-1.1066,-1.0994,-1.1174,-1.1154,-1.1153,-1.1244,-1.1245,-1.1246,-1.1188,-1.1184,-1.118,-1.1177,-1.1251,-1.1258,-1.1264,-1.1379,0,0,-1.1284,-1.1287,0,0,0,0,0,0,0,0,-1.1061,-1.1073,-1.1156,-1.1156,-1.1155,-1.1203,-1.1208,-1.1291,-1.1189,-1.1175,-1.1179,-1.1175,-1.1241,-1.1248,-1.1269,-1.1382,-1.1385,-1.1284,-1.1288,-1.1291,-1.1293,0,0,0,0,0,0,0,-1.1056,-1.1069,-1.1202,-1.1157,-1.1157,-1.1142,-1.1149,-1.1223,-1.1228,-1.1176,-1.1172,-1.1181,-1.1239,-1.1263,-1.127,-1.1386,-1.1284,-1.129,-1.1294,-1.1297,-1.1596,-1.16,0,0,0,0,0,0,-1.1053,-1.1065,-1.1199,-1.1204,-1.1098,-1.1149,-1.1156,-1.1191,-1.1227,-1.1229,-1.1184,-1.1177,-1.1254,-1.1263,-1.1273,-1.141,-1.1291,-1.1297,-1.1301,-1.1592,-1.1597,-1.1602,0,0,0,0,0,0,-1.1049,-1.1065,-1.1197,-1.1133,-1.1149,-1.1156,-1.1196,-1.1195,-1.1218,-1.1233,-1.1233,-1.1207,-1.1251,-1.1264,-1.1352,-1.1412,-1.13,-1.1306,-1.1588,-1.1594,-1.1599,-1.1685,0,0,0,0,0,0,-1.1044,-1.1064,-1.1108,-1.1135,-1.1153,-1.1275,-1.1199,-1.1199,-1.1229,-1.1222,-1.1255,-1.1257,-1.1249,-1.1343,-1.1359,-1.1419,-1.1311,-1.1582,-1.159,-1.1598,-1.1677,-1.1693,-1.1707,0,0,0,0,0,-1.1037,-1.1129,-1.111,-1.1127,-1.1207,-1.1279,-1.1289,-1.1278,-1.1234,-1.1278,-1.1287,-1.1256,-1.1402,-1.1353,-1.137,-1.1433,-1.1579,-1.1588,-1.1597,-1.167,-1.169,-1.1706,0,0,0,0,0,0,-1.1111,-1.1133,-1.1112,-1.1215,-1.1245,-1.1268,-1.1324,-1.1299,-1.1343,-1.1335,-1.1319,-1.1327,-1.1421,-1.1435,-1.138,-1.1545,-1.1483,-1.1496,-1.1533,-1.1552,-1.1567,-1.1562,-1.1316,0,0,0,0,0,-1.1138,-1.1194,-1.121,-1.13,-1.1316,-1.1317,-1.1348,-1.1337,-1.1368,-1.1381,-1.1396,-1.1428,-1.1481,-1.1517,-1.1566,-1.1677,-1.1684,-1.1728,-1.1743,-1.1756,-1.1768,-1.1828,-1.1848,-1.1632,-1.1632,-1.1632,0,0,-1.1197,-1.1216,-1.1253,-1.1315,-1.1337,-1.1396,-1.1329,-1.1394,-1.1437,-1.1391,-1.1476,-1.1488,-1.1522,-1.1623,-1.1668,-1.1638,-1.1829,-1.1767,-1.1777,-1.1783,-1.184,-1.186,-1.1878,-1.1638,-1.1637,-1.1636,0,0,-1.1335,-1.1354,-1.1431,-1.1454,-1.1488,-1.1488,-1.1506,-1.1533,-1.1539,-1.1623,-1.1589,-1.164,-1.1732,-1.1758,-1.1784,-1.1929,-1.1902,-1.1945,-1.2025,-1.2084,-1.2101,-1.2116,-1.2169,-1.2188,-1.1957,-1.1957,-1.1957,0,-1.1405,-1.1491,-1.1474,-1.1542,-1.157,-1.1529,-1.1607,-1.163,-1.1679,-1.17,-1.1664,-1.1778,-1.1798,-1.1904,-1.194,-1.1961,-1.1982,-1.1943,-1.2099,-1.2114,-1.2128,-1.2179,-1.2199,-1.1962,-1.1961,-1.1961,-1.196,0,-1.1575,-1.1635,-1.1693,-1.174,-1.1775,-1.1848,-1.1842,-1.188,-1.1864,-1.1868,-1.1954,-1.1976,-1.203,-1.2053,-1.204,-1.2158,-1.2138,-1.2101,-1.204,-1.2154,-1.2202,-1.2221,-1.1969,-1.1968,-1.1966,-1.1965,0,0,-1.1764,-1.1799,-1.1821,-1.1841,-1.1874,-1.1921,-1.1991,-1.2042,-1.2075,-1.2109,-1.2168,-1.2245,-1.2211,-1.224,-1.2228,-1.2279,-1.2394,-1.2236,-1.2237,-1.2266,-1.2526,-1.2555,-1.2578,-1.2374,-1.2378,-1.2381,-1.2524,0,-1.1905,-1.2026,-1.2012,-1.2129,-1.2185,-1.2145,-1.2206,-1.2233,-1.2237,-1.2285,-1.229,-1.2346,-1.2296,-1.2313,-1.2361,-1.237,-1.2446,-1.2359,-1.2431,-1.2434,-1.2426,-1.2602,-1.2634,-1.2767,-1.2542,-1.2545,-1.2547,0,-1.2085,-1.2125,-1.2247,-1.227,-1.2293,-1.2348,-1.2394,-1.244,-1.2469,-1.2469,-1.25,-1.2478,-1.2549,-1.2484,-1.2581,-1.2522,-1.255,-1.2558,-1.2563,-1.2572,-1.2499,-1.2618,-1.281,-1.2831,-1.2576,-1.2573,-1.2571,0,-1.2213,-1.2297,-1.238,-1.2399,-1.2428,-1.2468,-1.2482,-1.2507,-1.2539,-1.2578,-1.2598,-1.2645,-1.2672,-1.2709,-1.2701,-1.2654,-1.2801,-1.2735,-1.2804,-1.2804,-1.2839,-1.2838,-1.3041,-1.2854,-1.2853,-1.2853,-1.2852,0,-1.2373,-1.245,-1.2438,-1.249,-1.2574,-1.2557,-1.2641,-1.265,-1.2673,-1.2726,-1.2693,-1.2744,-1.2729,-1.2779,-1.2773,-1.2855,-1.2867,-1.2869,-1.2867,-1.2874,-1.2874,-1.2894,-1.2886,-1.2858,-1.2857,-1.2856,-1.2855,0,-1.2532,-1.2527,-1.2616,-1.2635,-1.2641,-1.2703,-1.272,-1.2769,-1.2769,-1.2837,-1.2852,-1.2853,-1.291,-1.2905,-1.2969,-1.2965,-1.3067,-1.3053,-1.3058,-1.3055,-1.3125,-1.312,-1.3351,-1.3381,-1.3172,-1.3174,-1.3176,0,-1.2635,-1.2693,-1.2718,-1.2751,-1.2767,-1.2821,-1.2852,-1.2836,-1.287,-1.2907,-1.2952,-1.3005,-1.3047,-1.314,-1.3148,-1.3196,-1.3184,-1.3262,-1.3192,-1.3196,-1.3188,-1.3185,-1.3191,-1.3277,-1.3279,-1.3281,-1.3282,0,-1.2821,-1.2815,-1.2861,-1.2906,-1.2943,-1.2978,-1.301,-1.3039,-1.3026,-1.3066,-1.3123,-1.3155,-1.322,-1.3274,-1.332,-1.3334,-1.3308,-1.3304,-1.3323,-1.3331,-1.3332,-1.3334,-1.3098,-1.33,-1.3298,-1.3297,-1.3296,-1.3295,-1.2956,-1.3006,-1.3031,-1.3083,-1.3104,-1.3134,-1.3181,-1.3186,-1.3234,-1.3285,-1.3272,-1.3337,-1.3363,-1.3422,-1.3441,-1.3492,-1.3464,-1.3491,-1.3498,-1.3506,-1.3515,-1.3322,-1.35,-1.3499,-1.3499,-1.3498,-1.3498,0,-1.3141,-1.3155,-1.3202,-1.3247,-1.3288,-1.3256,-1.3289,-1.3325,-1.3383,-1.3409,-1.3451,-1.3516,-1.3568,-1.3578,-1.3627,-1.3666,-1.3655,-1.368,-1.3678,-1.3682,-1.3536,-1.3515,-1.3688,-1.3688,-1.3688,-1.3688,-1.3688,-1.3688,-1.3242,-1.3325,-1.3321,-1.3414,-1.3426,-1.3489,-1.3511,-1.3538,-1.3559,-1.3634,-1.3676,-1.3682,-1.3702,-1.3752,-1.3798,-1.3799,-1.382,-1.385,-1.3847,-1.3711,-1.3692,-1.3674,-1.3655,-1.3854,-1.3855,-1.399,-1.3991,-1.3992]},{"header":{"parameterUnit":"m.s-1","parameterCategory":1,"la1":30.2991,"la2":30.254,"lo1":-89.0895,"lo2":-89.0444,"dy":0.0017,"dx":0.0017,"nx":28,"ny":28,"refTime":"2025-01-08T09:00:00:Z","depth":0,"parameterNumber":3,"parameterNumberName":"V-component_of_WINDS"},"data":[0,0,0,0,0,0,0,0,0,0,0,0,0,0,0,0,0,0,0,0,0,0,0,0,0,0,0,0,0,0,0,0,0,0,0,0,0,0,0,0,0,0,0,0,0,0,0,0,0,0,0,0,0,0,0,0,0,0,-6.62,-6.6201,0,-6.6357,-6.6359,-6.6361,-6.6291,-6.6287,-6.6283,-6.628,-6.6436,-6.6443,-6.6451,0,0,0,0,0,0,0,0,0,0,0,0,0,-6.5832,-6.5839,-6.6199,-6.6201,-6.6203,-6.6357,-6.6359,-6.6361,-6.6292,-6.6287,-6.6283,-6.6278,-6.6433,-6.6442,-6.6452,0,0,0,0,0,0,0,0,0,0,0,0,0,-6.5991,-6.5842,-6.6199,-6.6187,-6.6188,-6.6356,-6.6359,-6.6362,-6.6293,-6.6287,-6.6281,-6.6276,-6.643,-6.6441,-6.6453,-6.664,0,0,-6.6488,-6.6493,0,0,0,0,0,0,0,0,-6.5982,-6.6004,-6.6187,-6.6189,-6.6189,-6.6299,-6.6287,-6.6455,-6.6294,-6.6253,-6.628,-6.6273,-6.6394,-6.6409,-6.6451,-6.6648,-6.6654,-6.6489,-6.6496,-6.6501,-6.6505,0,0,0,0,0,0,0,-6.5971,-6.5997,-6.6262,-6.619,-6.6191,-6.6172,-6.6188,-6.6318,-6.6354,-6.6256,-6.6251,-6.6271,-6.6394,-6.644,-6.6454,-6.6657,-6.6489,-6.6499,-6.6507,-6.6511,-6.7013,-6.7019,0,0,0,0,0,0,-6.5961,-6.5989,-6.6257,-6.6266,-6.607,-6.6184,-6.6202,-6.6269,-6.6352,-6.636,-6.6276,-6.6267,-6.6423,-6.644,-6.6459,-6.6683,-6.6501,-6.6512,-6.6519,-6.7006,-6.7014,-6.7021,0,0,0,0,0,0,-6.5953,-6.5986,-6.625,-6.6126,-6.6159,-6.6196,-6.6273,-6.6276,-6.6321,-6.6368,-6.6373,-6.6317,-6.6419,-6.6443,-6.6596,-6.6687,-6.6517,-6.6528,-6.6999,-6.7009,-6.7017,-6.7133,0,0,0,0,0,0,-6.5943,-6.5983,-6.6057,-6.6129,-6.6166,-6.6387,-6.6278,-6.6283,-6.6342,-6.6332,-6.6407,-6.6414,-6.6416,-6.6579,-6.6607,-6.67,-6.6537,-6.6991,-6.7003,-6.7014,-6.7121,-6.7145,-6.7166,0,0,0,0,0,-6.593,-6.6082,-6.6061,-6.6093,-6.6258,-6.6392,-6.6413,-6.6414,-6.635,-6.6423,-6.6452,-6.6412,-6.6673,-6.6595,-6.6626,-6.6724,-6.6985,-6.7,-6.7014,-6.7111,-6.714,-6.7165,0,0,0,0,0,0,-6.6018,-6.6091,-6.6068,-6.6248,-6.6315,-6.638,-6.6472,-6.6445,-6.653,-6.6517,-6.6513,-6.653,-6.6688,-6.6721,-6.6634,-6.6909,-6.6819,-6.684,-6.6882,-6.691,-6.6932,-6.6921,-6.6547,0,0,0,0,0,-6.6059,-6.6164,-6.6221,-6.6374,-6.6408,-6.6435,-6.6493,-6.6488,-6.6556,-6.6583,-6.6624,-6.669,-6.6786,-6.685,-6.6941,-6.7125,-6.7139,-6.7208,-6.723,-6.7248,-6.7267,-6.7364,-6.7395,-6.7068,-6.7068,-6.7068,0,0,-6.6143,-6.6196,-6.6262,-6.6393,-6.6444,-6.655,-6.6459,-6.6576,-6.6654,-6.66,-6.6748,-6.678,-6.6852,-6.7021,-6.7098,-6.7054,-6.736,-6.7266,-6.7281,-6.7289,-6.7382,-6.7413,-6.7441,-6.7078,-6.7076,-6.7074,0,0,-6.6351,-6.6403,-6.6535,-6.6588,-6.6667,-6.6683,-6.6715,-6.6785,-6.6805,-6.6953,-6.6914,-6.7006,-6.7173,-6.7226,-6.7275,-6.7502,-6.7467,-6.7532,-6.7649,-6.7744,-6.777,-6.7793,-6.7872,-6.7901,-6.755,-6.755,-6.755,0,-6.6446,-6.6607,-6.6606,-6.6727,-6.6784,-6.6742,-6.6875,-6.6925,-6.7029,-6.7069,-6.7019,-6.7227,-6.7273,-6.7453,-6.7508,-6.755,-6.7584,-6.7523,-6.7767,-6.7789,-6.7811,-6.7887,-6.7917,-6.7557,-6.7557,-6.7556,-6.7555,0,-6.6719,-6.6831,-6.6928,-6.7031,-6.7099,-6.7225,-6.7242,-6.7311,-6.7299,-6.732,-6.747,-6.7524,-6.7625,-6.7667,-6.7657,-6.7846,-6.7816,-6.7766,-6.7675,-6.7849,-6.792,-6.795,-6.7568,-6.7565,-6.7563,-6.7561,0,0,-6.6988,-6.7088,-6.7124,-6.717,-6.7253,-6.7338,-6.7461,-6.7561,-6.762,-6.7692,-6.7794,-6.7936,-6.789,-6.7946,-6.794,-6.8024,-6.8199,-6.7964,-6.7966,-6.8005,-6.8409,-6.8445,-6.8479,-6.8177,-6.8182,-6.8187,-6.8402,0,-6.7201,-6.7419,-6.7421,-6.7621,-6.7723,-6.7683,-6.779,-6.7851,-6.7874,-6.7962,-6.7985,-6.8086,-6.8019,-6.8052,-6.8133,-6.8161,-6.828,-6.8145,-6.8269,-6.8274,-6.8252,-6.8517,-6.8556,-6.8757,-6.843,-6.8435,-6.8438,0,-6.7481,-6.7564,-6.7774,-6.7841,-6.7883,-6.798,-6.8071,-6.8157,-6.8224,-6.8234,-6.8296,-6.8278,-6.84,-6.8306,-6.8473,-6.8382,-6.8432,-6.8453,-6.8461,-6.8472,-6.8367,-6.8534,-6.8822,-6.8852,-6.8483,-6.8479,-6.8476,0,-6.7655,-6.7819,-6.7965,-6.8005,-6.8088,-6.8156,-6.8193,-6.8255,-6.8315,-6.8394,-6.8432,-6.8524,-6.8574,-6.8644,-6.865,-6.8581,-6.8819,-6.8725,-6.8829,-6.8829,-6.8881,-6.8877,-6.9179,-6.8914,-6.8914,-6.8913,-6.8912,0,-6.7893,-6.8023,-6.8044,-6.8135,-6.8278,-6.8278,-6.8419,-6.845,-6.8505,-6.8599,-6.8569,-6.8657,-6.866,-6.875,-6.8755,-6.8892,-6.8915,-6.8925,-6.8924,-6.8928,-6.8926,-6.896,-6.8946,-6.8921,-6.8919,-6.8918,-6.8916,0,-6.8112,-6.8132,-6.8289,-6.8354,-6.8373,-6.8476,-6.853,-6.8615,-6.8634,-6.8753,-6.878,-6.881,-6.8914,-6.8927,-6.9047,-6.905,-6.9215,-6.92,-6.9193,-6.9191,-6.9294,-6.9284,-6.9628,-6.9673,-6.9379,-6.9382,-6.9384,0,-6.8263,-6.8362,-6.8438,-6.8499,-6.854,-6.864,-6.8701,-6.8704,-6.8768,-6.8852,-6.8926,-6.9027,-6.9108,-6.9275,-6.9306,-6.9397,-6.9383,-6.9498,-6.9397,-6.9396,-6.9384,-6.9378,-6.9387,-6.9517,-6.952,-6.9523,-6.9525,0,-6.8529,-6.8533,-6.8623,-6.8717,-6.8791,-6.8865,-6.8934,-6.8985,-6.8996,-6.907,-6.9176,-6.9239,-6.9362,-6.9462,-6.9552,-6.9587,-6.9558,-6.9557,-6.9585,-6.9589,-6.9581,-6.9586,-6.9246,-6.9549,-6.9546,-6.9545,-6.9543,-6.9542,-6.8718,-6.8803,-6.887,-6.8971,-6.9023,-6.9088,-6.9171,-6.9201,-6.929,-6.9392,-6.9387,-6.9504,-6.9567,-6.9685,-6.9727,-6.9816,-6.9778,-6.982,-6.9831,-6.9841,-6.9851,-6.9567,-6.9833,-6.9832,-6.9831,-6.9831,-6.983,0,-6.8981,-6.9022,-6.9115,-6.9212,-6.9291,-6.9258,-6.9332,-6.94,-6.9504,-6.9566,-6.9646,-6.9767,-6.9864,-6.9902,-6.9996,-7.006,-7.0049,-7.0085,-7.008,-7.0088,-6.988,-6.9846,-7.0092,-7.0092,-7.0092,-7.0092,-7.0092,-7.0092,-6.9127,-6.927,-6.9282,-6.945,-6.9489,-6.9605,-6.965,-6.9709,-6.9758,-6.9895,-6.9976,-7.0001,-7.0053,-7.015,-7.0236,-7.0244,-7.028,-7.0321,-7.0324,-7.0129,-7.0103,-7.0077,-7.0045,-7.0329,-7.033,-7.0524,-7.0526,-7.0527]}]]